Starlink 3362

operational
NORAD ID: 51108 Int'l Des: 2022-005 Owner: SPXS Country: US Constellation: starlink
LEOCIRCULAR

About Starlink 3362

Description loading...

Live Position

Loading 3D Globe...

Upcoming Passes

Altitude History

Altitude vs Time

uPlot chart will show altitude changes over time

Two-Line Element Set

1 51108U 22005E 25257.57774020 -.00000594 00000-0 -19272-4 0 9992
2 51108 53.2192 359.7190 0001221 81.5559 278.5572 15.08835243202292
Epoch: Sep 14, 2025 • Age: 19 hours

Current Status

Altitude 540.3 km
Velocity 7.60 km/s
Sub-Earth Point 25.82°N, 113.69°W
Launch Date Jan 19, 2022
Age 3.6 years
Type internet

Technical Details

Classification Payload
Mass 297.00 kg
Dry Mass 275.00 kg
Total Mass 297.00 kg
Length 0.20 m
Diameter 2.80 m
Span 9.00 m
Shape Box + pan
Manufacturer SPXS
Bus Type Starlink
Phase Status In Orbit
Owner/State SPXS/US

Large Constellations

Loading constellations...